Regional Weather Roundup
Issued by NWS

Home | Current Version | Previous Version | Graphics & Text | Print | Product List | Glossary On
Versions: 1 2 3 4 5 6 7 8 9 10 11 12 13 14 15 16 17 18 19 20 21 22 23 24 25 26 27 28 29 30 31 32 33 34 35 36 37 38 39 40 41 42 43 44 45 46 47 48 49 50
000
ASUS43 KIND 130559
RWRIN

WEATHER ROUNDUP FOR INDIANA
NATIONAL WEATHER SERVICE INDIANAPOLIS IN
200 AM EDT SUN JUL 13 2014

NOTE: "FAIR" INDICATES FEW OR NO CLOUDS BELOW 12,000 FEET WITH NO
SIGNIFICANT WEATHER AND/OR OBSTRUCTIONS TO VISIBILITY.

* - STATION DOES NOT REPORT WEATHER SUCH AS PRECIPITATION OR FOG.

+ - STATION NOT QUALITY CONTROLLED BY THE NATIONAL WEATHER SERVICE.
    USE DATA WITH CAUTION...ESPECIALLY DEWPOINT AND RELATIVE
    HUMIDITY OBSERVATIONS.

INZ001>003-010>013-019-020-130700-
NORTHWEST INDIANA

CITY           SKY/WX    TMP DP  RH WIND       PRES   REMARKS
MONTICELLO +   CLOUDY    76  74  92 SW12G17   29.89F
VALPARAISO     LGT RAIN  77  74  90 SW10      29.89F
6HR MIN TEMP:  74; 6HR MAX TEMP:  78; 6HR PCP:  0.02;


$$

LMZ046-743>745-130700-
SOUTHERN LAKE MICHIGAN

STATION/POSITION TIME  TEMP WIND        PRES
                       AIR  DIR/SP/G
                 (UTC) (F)  (DEG/KT/KT) (MB)
MICHIGAN CITY    0500   77  170/ 16/ 22   N/A

$$

INZ004-005-014>016-021>024-130700-
NORTH CENTRAL INDIANA

CITY           SKY/WX    TMP DP  RH WIND       PRES   REMARKS
GOSHEN         LGT RAIN  76  72  87 SW10      29.90F
6HR MIN TEMP:  75; 6HR MAX TEMP:  78; 6HR PCP: TRACE;

SOUTH BEND     CLOUDY    76  73  91 SW12      29.89F
6HR MIN TEMP:  76; 6HR MAX TEMP:  77; 6HR PCP:  0.04;


$$

INZ006>009-017-018-025>027-130700-
NORTHEAST INDIANA

CITY           SKY/WX    TMP DP  RH WIND       PRES   REMARKS
ANGOLA *+      MOCLDY    73  64  73 S8        29.92F
FORT WAYNE     CLOUDY    75  70  84 SW14      29.94F
6HR MIN TEMP:  72; 6HR MAX TEMP:  78;


$$

INZ028-029-035-036-043>045-051>053-130700-
WEST CENTRAL INDIANA

CITY           SKY/WX    TMP DP  RH WIND       PRES   REMARKS
GREENCASTLE +  CLOUDY    75  72  88 S6        29.98F
LAFAYETTE      CLOUDY    77  73  87 SW10      29.91F
6HR MIN TEMP:  74; 6HR MAX TEMP:  77;

TERRE HAUTE    CLOUDY    77  72  84 SW10      29.97F
6HR MIN TEMP:  76; 6HR MAX TEMP:  81;


$$

INZ030>032-037>040-046>048-054>057-064-065-130700-
CENTRAL INDIANA

CITY           SKY/WX    TMP DP  RH WIND       PRES   REMARKS
INDIANAPOLIS   CLOUDY    76  71  85 SW10      29.97F
6HR MIN TEMP:  74; 6HR MAX TEMP:  78;

-EAGLE CREEK   CLOUDY    76  70  82 SW9       29.97F
6HR MIN TEMP:  75; 6HR MAX TEMP:  78;

KOKOMO *+      CLOUDY    75  70  83 SW14G20   29.94F
MT COMFORT *+  MOCLDY    73 N/A N/A S7        29.99F
SHELBYVILLE    MOCLDY    76  70  82 S10       30.00F
6HR MIN TEMP:  75; 6HR MAX TEMP:  80;


$$

INZ033-034-041-042-049-050-058-059-130700-
EAST CENTRAL INDIANA

CITY           SKY/WX    TMP DP  RH WIND       PRES   REMARKS
MUNCIE         CLOUDY    76  69  79 SW9       29.99F
6HR MIN TEMP:  75; 6HR MAX TEMP:  78;


$$

INZ060-061-067>069-081>083-085>088-130700-
SOUTHWEST INDIANA

CITY           SKY/WX    TMP DP  RH WIND       PRES   REMARKS
EVANSVILLE     PTCLDY    78  72  81 SW8       30.04S
6HR MIN TEMP:  78; 6HR MAX TEMP:  83;

HUNTINGBURG *+ PTCLDY    77  70  78 SW8       30.04F
6HR MIN TEMP:  75; 6HR MAX TEMP:  82;


$$

INZ062-063-066-070>080-084-089>092-130700-
SOUTH CENTRAL AND SOUTHEAST INDIANA

CITY           SKY/WX    TMP DP  RH WIND       PRES   REMARKS
BLOOMINGTON    PTCLDY    77  70  79 SW8       30.01F
6HR MIN TEMP:  75; 6HR MAX TEMP:  79;


$$



USA.gov is the U.S. government's official web portal to all federal, state and local government web resources and services.